• In France
  • List of Countries
  • For 7 days
  • Water Temperature
  • Satellite Maps
  • Weather Map
  • Weather Widgets
  • user-avatar
    Login

    Hourly Weather Hobart

    Today, 15 October, Monday

    Time Temperature Precipitation Wind Pressure Humidity
    00:00 +11°C° 0 mm 4 mps 754 mmHg 94%
    01:00 +11°C° 0 mm 4 mps 754 mmHg 94%
    02:00 +11°C° 0 mm 4 mps 753 mmHg 95%
    03:00 +10°C° 0 mm 4 mps 753 mmHg 95%
    04:00 +9°C° 0 mm 3 mps 752 mmHg 97%
    05:00 +11°C° 0 mm 3 mps 752 mmHg 92%
    06:00 +12°C° 0 mm 4 mps 753 mmHg 87%
    07:00 +13°C° 0 mm 4 mps 753 mmHg 82%
    08:00 +17°C° 0 mm 4 mps 752 mmHg 72%
    09:00 +20°C° 0 mm 5 mps 752 mmHg 62%
    10:00 +23°C° 0 mm 4 mps 752 mmHg 48%
    11:00 +25°C° 0 mm 4 mps 752 mmHg 46%
    12:00 +26°C° 0 mm 5 mps 752 mmHg 44%
    13:00 +27°C° 0 mm 5 mps 752 mmHg 42%
    14:00 +26°C° 0 mm 5 mps 751 mmHg 45%
    15:00 +25°C° 0 mm 5 mps 751 mmHg 48%
    16:00 +25°C° 0 mm 4 mps 750 mmHg 50%
    17:00 +22°C° 0 mm 4 mps 750 mmHg 58%
    18:00 +20°C° 0 mm 4 mps 751 mmHg 67%
    19:00 +18°C° 0 mm 4 mps 751 mmHg 75%
    20:00 +17°C° 0 mm 4 mps 751 mmHg 81%
    21:00 +14°C° 0 mm 4 mps 751 mmHg 87%
    22:00 +13°C° 0 mm 3 mps 750 mmHg 93%
    23:00 +13°C° 0 mm 3 mps 750 mmHg 94%

    Tomorrow, 16 October, Tuesday

    Time Temperature Precipitation Wind Pressure Humidity
    00:00 +12°C° 0 mm 3 mps 750 mmHg 94%
    01:00 +12°C° 0 mm 3 mps 750 mmHg 95%
    02:00 +12°C° 0 mm 3 mps 750 mmHg 94%
    03:00 +13°C° 0 mm 3 mps 749 mmHg 93%
    04:00 +13°C° 0 mm 3 mps 749 mmHg 92%
    05:00 +14°C° 0 mm 3 mps 749 mmHg 88%
    06:00 +16°C° 0 mm 3 mps 749 mmHg 84%
    07:00 +17°C° 0 mm 3 mps 749 mmHg 80%
    08:00 +20°C° 0 mm 3 mps 749 mmHg 70%
    09:00 +24°C° 0 mm 3 mps 749 mmHg 60%
    10:00 +27°C° 0 mm 3 mps 749 mmHg 49%
    11:00 +28°C° 0 mm 3 mps 748 mmHg 46%
    12:00 +29°C° 0 mm 4 mps 748 mmHg 42%
    13:00 +30°C° 0 mm 4 mps 748 mmHg 38%
    14:00 +28°C° 0.1 mm 4 mps 747 mmHg 47%
    15:00 +26°C° 0.1 mm 4 mps 747 mmHg 56%
    16:00 +25°C° 0.1 mm 3 mps 747 mmHg 65%
    17:00 +22°C° 0.4 mm 3 mps 747 mmHg 72%
    18:00 +20°C° 0.4 mm 2 mps 747 mmHg 80%
    19:00 +18°C° 0.4 mm 2 mps 747 mmHg 88%
    20:00 +18°C° 0.1 mm 2 mps 747 mmHg 90%
    21:00 +18°C° 0.1 mm 1 mps 747 mmHg 93%
    22:00 +18°C° 0.1 mm 1 mps 747 mmHg 95%
    23:00 +16°C° 0 mm 1 mps 747 mmHg 95%

    Day after tomorrow, 17 October, Wednesday

    Time Temperature Precipitation Wind Pressure Humidity
    00:00 +16°C° 0 mm 1 mps 747 mmHg 96%
    01:00 +16°C° 0 mm 1 mps 747 mmHg 97%
    02:00 +15°C° 0.1 mm 1 mps 747 mmHg 97%
    03:00 +15°C° 0.1 mm 1 mps 746 mmHg 97%
    04:00 +15°C° 0.1 mm 1 mps 746 mmHg 98%
    05:00 +16°C° 0.1 mm 1 mps 746 mmHg 97%
    06:00 +16°C° 0.1 mm 1 mps 746 mmHg 96%
    07:00 +16°C° 0.1 mm 1 mps 746 mmHg 96%
    08:00 +18°C° 1.1 mm 1 mps 746 mmHg 96%
    09:00 +18°C° 1.1 mm 1 mps 746 mmHg 96%
    10:00 +18°C° 1.1 mm 1 mps 746 mmHg 96%
    11:00 +19°C° 0.5 mm 1 mps 746 mmHg 96%
    12:00 +19°C° 0.5 mm 1 mps 745 mmHg 95%
    13:00 +19°C° 0.5 mm 2 mps 745 mmHg 95%
    14:00 +18°C° 2.2 mm 2 mps 745 mmHg 96%
    15:00 +18°C° 2.2 mm 2 mps 744 mmHg 97%
    16:00 +17°C° 2.2 mm 2 mps 744 mmHg 97%
    17:00 +17°C° 0.5 mm 2 mps 744 mmHg 97%
    18:00 +17°C° 0.5 mm 2 mps 744 mmHg 97%
    19:00 +16°C° 0.5 mm 2 mps 744 mmHg 97%
    20:00 +16°C° 0 mm 2 mps 744 mmHg 97%
    21:00 +15°C° 0 mm 2 mps 744 mmHg 97%
    22:00 +15°C° 0 mm 2 mps 745 mmHg 97%
    23:00 +14°C° 0 mm 2 mps 744 mmHg 97%

    18 October, Thursday

    Time Temperature Precipitation Wind Pressure Humidity
    00:00 +14°C° 0 mm 2 mps 744 mmHg 97%
    01:00 +13°C° 0 mm 2 mps 744 mmHg 98%
    02:00 +13°C° 0 mm 2 mps 744 mmHg 97%
    03:00 +12°C° 0 mm 1 mps 743 mmHg 97%
    04:00 +12°C° 0 mm 1 mps 743 mmHg 97%
    05:00 +13°C° 0 mm 1 mps 743 mmHg 96%
    06:00 +14°C° 0 mm 1 mps 744 mmHg 94%
    07:00 +15°C° 0 mm 1 mps 744 mmHg 93%
    08:00 +18°C° 0.2 mm 1 mps 744 mmHg 83%
    09:00 +19°C° 0.2 mm 2 mps 744 mmHg 73%
    10:00 +21°C° 0.2 mm 2 mps 744 mmHg 64%
    11:00 +21°C° 0.6 mm 2 mps 743 mmHg 66%
    12:00 +21°C° 0.6 mm 2 mps 743 mmHg 69%
    13:00 +21°C° 0.6 mm 2 mps 743 mmHg 71%
    14:00 +20°C° 1.3 mm 3 mps 742 mmHg 77%
    15:00 +18°C° 1.3 mm 3 mps 742 mmHg 84%
    16:00 +17°C° 1.3 mm 3 mps 742 mmHg 90%
    17:00 +16°C° 1 mm 3 mps 742 mmHg 92%
    18:00 +15°C° 1 mm 2 mps 743 mmHg 94%
    19:00 +14°C° 1 mm 2 mps 743 mmHg 97%
    20:00 +14°C° 0.4 mm 2 mps 743 mmHg 97%
    21:00 +14°C° 0.4 mm 2 mps 743 mmHg 97%
    22:00 +14°C° 0.4 mm 1 mps 743 mmHg 97%
    23:00 +13°C° 0.1 mm 2 mps 743 mmHg 97%

    19 October, Friday

    Time Temperature Precipitation Wind Pressure Humidity
    00:00 +13°C° 0.1 mm 2 mps 743 mmHg 97%
    01:00 +13°C° 0.1 mm 2 mps 743 mmHg 97%
    02:00 +13°C° 0 mm 2 mps 743 mmHg 97%
    03:00 +13°C° 0 mm 2 mps 743 mmHg 97%
    04:00 +12°C° 0 mm 2 mps 743 mmHg 97%
    05:00 +13°C° 0 mm 2 mps 743 mmHg 95%
    06:00 +13°C° 0 mm 2 mps 743 mmHg 93%
    07:00 +14°C° 0 mm 2 mps 743 mmHg 92%
    08:00 +15°C° 0 mm 2 mps 742 mmHg 82%
    09:00 +17°C° 0 mm 2 mps 742 mmHg 73%
    10:00 +19°C° 0 mm 2 mps 742 mmHg 64%
    11:00 +20°C° 0 mm 3 mps 741 mmHg 56%
    12:00 +22°C° 0 mm 3 mps 741 mmHg 49%
    13:00 +24°C° 0 mm 3 mps 740 mmHg 42%
    14:00 +24°C° 0 mm 3 mps 739 mmHg 42%
    15:00 +23°C° 0 mm 4 mps 739 mmHg 41%
    16:00 +22°C° 0 mm 4 mps 738 mmHg 40%
    17:00 +20°C° 0 mm 4 mps 737 mmHg 45%
    18:00 +19°C° 0 mm 4 mps 737 mmHg 50%
    19:00 +17°C° 0 mm 4 mps 737 mmHg 55%
    20:00 +15°C° 0 mm 4 mps 736 mmHg 61%
    21:00 +15°C° 0 mm 5 mps 736 mmHg 66%
    22:00 +15°C° 0 mm 6 mps 735 mmHg 72%
    23:00 +14°C° 0.1 mm 6 mps 735 mmHg 71%

    20 October, Saturday

    Time Temperature Precipitation Wind Pressure Humidity
    00:00 +12°C° 0.1 mm 7 mps 736 mmHg 70%
    01:00 +11°C° 0.1 mm 7 mps 736 mmHg 69%
    02:00 +10°C° 0 mm 7 mps 737 mmHg 69%
    03:00 +9°C° 0 mm 7 mps 737 mmHg 69%
    04:00 +8°C° 0 mm 7 mps 738 mmHg 69%
    05:00 +8°C° 0 mm 7 mps 739 mmHg 67%
    06:00 +8°C° 0 mm 7 mps 740 mmHg 65%
    07:00 +7°C° 0 mm 8 mps 741 mmHg 63%
    08:00 +9°C° 0 mm 7 mps 742 mmHg 60%
    09:00 +10°C° 0 mm 7 mps 742 mmHg 58%
    10:00 +11°C° 0 mm 6 mps 743 mmHg 55%
    11:00 +13°C° 0 mm 6 mps 743 mmHg 52%
    12:00 +14°C° 0 mm 6 mps 743 mmHg 50%
    13:00 +15°C° 0 mm 6 mps 743 mmHg 48%
    14:00 +15°C° 0 mm 6 mps 744 mmHg 49%
    15:00 +15°C° 0 mm 6 mps 744 mmHg 50%
    16:00 +15°C° 0 mm 6 mps 744 mmHg 52%
    17:00 +13°C° 0 mm 5 mps 745 mmHg 59%
    18:00 +12°C° 0 mm 4 mps 745 mmHg 66%
    19:00 +10°C° 0 mm 4 mps 746 mmHg 72%
    20:00 +10°C° 0 mm 4 mps 747 mmHg 74%
    21:00 +10°C° 0 mm 3 mps 747 mmHg 76%
    22:00 +10°C° 0 mm 3 mps 748 mmHg 78%
    23:00 +11°C° 0 mm 3 mps 748 mmHg 78%
    Show more